Regional Weather Roundup
Issued by NWS

Home | Current Version | Previous Version | Graphics & Text | Print | Product List | Glossary On
Versions: 1 2 3 4 5 6 7 8 9 10 11 12 13 14 15 16 17 18 19 20 21 22 23 24 25 26 27 28 29 30 31 32 33 34 35 36 37 38 39 40 41 42 43 44 45 46 47 48 49 50
096
ASUS44 KMEG 301810
RWRTN
TENNESSEE HOURLY STATE WEATHER ROUNDUP
NATIONAL WEATHER SERVICE MEMPHIS TN
100 PM CDT SAT APR 30 2016

TNZ002-004-019-021-049-052-054-088>092-301900-
WEST TENNESSEE

CITY           SKY/WX    TMP DP  RH WIND       PRES   REMARKS
MEMPHIS INTL   CLOUDY    71  63  75 VRB5      29.83R
NWS MEMPHIS      N/A     68 N/A N/A MISG        N/A
JACKSON        LGT RAIN  67  61  81 S12G25    29.82R
DYERSBURG      CLOUDY    72  63  73 SW5         N/A
UNION CITY     MOSUNNY   72  64  78 S7        29.83R
LEXINGTON      MOSUNNY   66  64  94 S8        29.89F
$$

TNZ008-025-027-028-033-062-065-066-301900-
NORTH MIDDLE TENNESSEE

CITY           SKY/WX    TMP DP  RH WIND       PRES   REMARKS
NASHVILLE      CLOUDY    72  62  71 CALM      29.92F
CLARKSVILLE    CLOUDY    67  64  90 SE9       29.88F
SMYRNA         CLOUDY    72  63  73 CALM      29.93F
COOKEVILLE     PTSUNNY   70  61  73 SE3       29.94S
CROSSVILLE     CLOUDY    72  58  61 VRB7      30.00S
$$

TNZ061-075-076-078-094-096-097-301900-
SOUTH MIDDLE TENNESSEE

CITY           SKY/WX    TMP DP  RH WIND       PRES   REMARKS
FAYETTEVILLE   SUNNY     77  63  61 S10G17    29.93S
TULLAHOMA      MOSUNNY   77  63  61 SW9       29.94S
WINCHESTER     SUNNY     81  59  47 SW10      29.92F
MCMINNVILLE    SUNNY     72  64  78 CALM      29.93F
COLUMBIA       PTSUNNY   75  75 100 W8        29.90F
SHELBYVILLE    MOSUNNY   79  64  61 SW9       29.93F
$$

TNZ017-018-042-046-047-301900-
NORTHEAST TENNESSEE

CITY           SKY/WX    TMP DP  RH WIND       PRES   REMARKS
TRI CITIES     CLOUDY    76  57  51 CALM      30.00F
$$

TNZ012-013-036-069-073-074-301900-
CENTRAL EAST TENNESSEE

CITY           SKY/WX    TMP DP  RH WIND       PRES   REMARKS
KNOXVILLE      LGT RAIN  73  58  59 NW9       29.98R
OAK RIDGE      LGT RAIN  67  61  81 CALM      30.02R
GATLINBURG     CLEAR     79  57  47 NW6       29.95S
MORRISTOWN     MOCLDY    75  55  50 NE7       29.97F
$$

TNZ083-085-099-301900-
SOUTHEAST TENNESSEE

CITY           SKY/WX    TMP DP  RH WIND       PRES   REMARKS
CHATTANOOGA    PTSUNNY   79  61  53 VRB6      29.94F
$$

SKY/WX REPORTED AS FAIR MEANS FEW OR NO CLOUDS BELOW
12 THOUSAND FEET.





USA.gov is the U.S. government's official web portal to all federal, state and local government web resources and services.